Flag for Cayman Islands Weather past 2 weeks in George Town, Cayman Islands

Now
75 °F

Mild.


Feels Like: 75 °F
Forecast: 80 / 83 °F
Wind: 2 mph from East

Location: Cayo Largo Del Sur


UV Index: 10 (Very high)

Visibility: N/A


Pressure: 29.92 "Hg

Humidity: 83%

Dew point: 70 °F

Location of George TownLocation

Historic Weather in George Town

°F

George Town temperature yesterday

Maximum temperature yesterday: 84 °F (at 12:51 PM)
Minimum temperature yesterday: 77 °F (at 12:05 AM)
Average temperature yesterday: 80 °F

Past Weeks' High & Low Weather Summary

 TemperatureHumidityPressure
High88 °F (Apr 16, 2:51 PM)89% (Apr 12, 5:05 AM)30.18 "Hg (Apr 12, 5:05 AM)
Low72 °F (Apr 10, 2:05 AM)42% (Apr 9, 12:52 PM)29.89 "Hg (Apr 14, 3:05 AM)
Average80 °F71%29.99 "Hg
* Reported Apr 9 4:05 AM — Apr 24 4:05 AM, George Town, Weather by CustomWeather, © 2014

Note: Actual official high and low records may vary slightly from our data, if they occured in-between our weather recording intervals... More about our weather records

Advertising

Historic Weather Conditions — Data for Previous 24 hours

 ConditionsComfort  
Time TempWeatherWind HumidityBarometerVisibility
4:05 AM
Apr 24
77 °FWarm.5 mph79%29.92 "HgN/A
3:05 AM79 °FWarm.8 mph74%29.92 "HgN/A
2:05 AM79 °FWarm.10 mph74%29.92 "HgN/A
1:05 AM79 °FWarm.12 mph74%29.92 "HgN/A
12:05 AM79 °FWarm.12 mph70%29.95 "HgN/A
11:05 PM
Apr 23
77 °FWarm.2 mph74%29.95 "HgN/A
10:05 PM79 °FWarm.2 mph65%29.95 "HgN/A
9:05 PM81 °FWarm.6 mph62%29.95 "HgN/A
8:05 PM81 °FWarm.5 mph62%29.95 "HgN/A
6:51 PM81 °FPassing clouds.6 mph62%29.92 "Hg6 mi
5:51 PM82 °FPassing clouds.6 mph55%29.92 "HgN/A
4:51 PM82 °FPassing clouds.6 mph58%29.89 "HgN/A
3:51 PM84 °FPassing clouds.3 mph55%29.89 "HgN/A
2:51 PM84 °FPassing clouds.6 mph51%29.92 "HgN/A
1:51 PM82 °FPassing clouds.6 mph55%29.95 "HgN/A
12:51 PM84 °FPassing clouds.8 mph55%29.95 "HgN/A
11:51 AM82 °FPassing clouds.9 mph62%29.95 "HgN/A
10:51 AM82 °FPassing clouds.10 mph62%29.98 "HgN/A
9:51 AM82 °FPassing clouds.10 mph62%29.98 "HgN/A
8:51 AM81 °FPassing clouds.10 mph66%29.95 "HgN/A
7:51 AM79 °FPartly sunny.9 mph70%29.95 "Hg6 mi
6:51 AM77 °FPassing clouds.10 mph74%29.92 "Hg6 mi
5:51 AM77 °FPassing clouds.10 mph74%29.92 "Hg6 mi
5:05 AM77 °FWarm.10 mph69%29.92 "HgN/A
Weather by CustomWeather, © 2014

See weather overview